FW6402 Weather Reports


time (UTC)temp
C
wind
direction
speed
KPH
gust
KPH
rain 1hr
cm
rain 24hr
cm
rain mn
cm
humidity
%
barometer
mb
20260507193332 18 252 8.0 11.3 0.00 0.00 0.00 55 1021.4
20260507192848 18 238 3.2 6.4 0.00 0.00 0.00 56 1021.4
20260507192345 18 183 1.6 9.7 0.00 0.00 0.00 56 1021.5
20260507191842 18 272 6.4 9.7 0.00 0.00 0.00 56 1021.5
20260507191348 18 230 1.6 6.4 0.00 0.00 0.00 57 1021.5
20260507190845 17 22 1.6 6.4 0.00 0.00 0.00 56 1021.6
20260507190343 18 336 1.6 4.8 0.00 0.00 0.00 57 1021.7
20260507185839 18 143 1.6 4.8 0.00 0.00 0.00 58 1021.8
20260507185353 17 276 1.6 4.8 0.00 0.00 0.00 58 1021.8
20260507184910 17 349 1.6 6.4 0.00 0.00 0.00 58 1021.9
20260507184346 17 245 1.6 6.4 0.00 0.00 0.00 60 1021.9
20260507183843 17 233 1.6 6.4 0.00 0.00 0.00 59 1021.9
20260507183350 16 73 1.6 8.0 0.00 0.00 0.00 60 1022.0
20260507182847 17 112 3.2 8.0 0.00 0.00 0.00 59 1021.9
20260507182404 17 32 1.6 6.4 0.00 0.00 0.00 58 1022.0
20260507181843 17 14 3.2 6.4 0.00 0.00 0.00 60 1022.1
20260507181340 16 287 1.6 4.8 0.00 0.00 0.00 61 1022.2
20260507180836 16 233 1.6 4.8 0.00 0.00 0.00 62 1022.3
20260507180419 16 244 0.0 9.7 0.00 0.00 0.00 64 1022.2
20260507175852 15 357 3.2 9.7 0.00 0.00 0.00 64 1022.3
20260507175350 16 92 3.2 8.0 0.00 0.00 0.00 61 1022.3
20260507174847 16 146 0.0 4.8 0.00 0.00 0.00 62 1022.4
20260507174405 16 327 1.6 4.8 0.00 0.00 0.00 65 1022.4
20260507173841 15 77 1.6 4.8 0.00 0.00 0.00 65 1022.4
20260507173342 15 4 1.6 6.4 0.00 0.00 0.00 66 1022.5
20260507172838 15 219 3.2 6.4 0.00 0.00 0.00 66 1022.4
20260507172335 15 257 1.6 4.8 0.00 0.00 0.00 65 1022.4
20260507171917 15 271 1.6 6.4 0.00 0.00 0.00 66 1022.5
20260507171352 14 108 0.0 8.0 0.00 0.00 0.00 67 1022.5
20260507170831 14 227 1.6 8.0 0.00 0.00 0.00 65 1022.5
20260507170347 15 225 3.2 8.0 0.00 0.00 0.00 66 1022.6
20260507165844 15 266 0.0 4.8 0.00 0.00 0.00 66 1022.6
20260507165349 14 268 1.6 8.0 0.00 0.00 0.00 68 1022.6
20260507164846 13 276 3.2 8.0 0.00 0.00 0.00 68 1022.7
20260507164344 13 321 1.6 4.8 0.00 0.00 0.00 68 1022.7
20260507163842 13 356 1.6 8.0 0.00 0.00 0.00 69 1022.6
20260507163339 13 267 4.8 8.0 0.00 0.00 0.00 68 1022.7
20260507162854 13 284 1.6 8.0 0.00 0.00 0.00 69 1022.7
20260507162351 13 312 0.0 8.0 0.00 0.00 0.00 68 1022.7
20260507161909 13 103 1.6 6.4 0.00 0.00 0.00 69 1022.8
20260507161343 12 207 0.0 6.4 0.00 0.00 0.00 71 1022.7
20260507160840 12 58 1.6 9.7 0.00 0.00 0.00 71 1022.7
20260507160407 12 55 1.6 12.9 0.00 0.00 0.00 71 1022.7
20260507155903 12 85 1.6 12.9 0.00 0.00 0.00 71 1022.7
20260507155349 12 69 1.6 11.3 0.00 0.00 0.00 72 1022.7
20260507154845 12 359 3.2 11.3 0.00 0.00 0.00 71 1022.7
20260507154339 12 261 1.6 6.4 0.00 0.00 0.00 73 1022.8
20260507153900 12 292 0.0 6.4 0.00 0.00 0.00 73 1022.8
20260507153337 11 344 1.6 6.4 0.00 0.00 0.00 73 1022.8
20260507152837 11 34 1.6 6.4 0.00 0.00 0.00 73 1022.9
20260507152331 11 264 1.6 6.4 0.00 0.00 0.00 73 1022.8
20260507151849 11 180 1.6 6.4 0.00 0.00 0.00 73 1022.8
20260507151346 11 267 0.0 3.2 0.00 0.00 0.00 73 1022.9
20260507150845 11 17 0.0 9.7 0.00 0.00 0.00 74 1022.8
20260507150405 11 252 4.8 9.7 0.00 0.00 0.00 73 1022.8
20260507145836 11 16 1.6 9.7 0.00 0.00 0.00 74 1022.8
20260507145335 11 81 3.2 11.3 0.00 0.00 0.00 75 1022.8
20260507144855 11 92 3.2 14.5 0.00 0.00 0.00 74 1022.8
20260507144335 11 44 3.2 14.5 0.00 0.00 0.00 74 1022.8
20260507143830 11 352 1.6 9.7 0.00 0.00 0.00 74 1022.7
20260507143417 11 86 4.8 9.7 0.00 0.00 0.00 74 1022.6
20260507142853 11 26 3.2 9.7 0.00 0.00 0.00 75 1022.6
20260507142349 11 86 3.2 9.7 0.00 0.00 0.00 75 1022.6
20260507141855 11 44 1.6 3.2 0.00 0.00 0.00 75 1022.6
20260507141407 11 98 0.0 3.2 0.00 0.00 0.00 76 1022.5
20260507140844 11 99 1.6 1.6 0.00 0.00 0.00 76 1022.5
20260507140341 11 115 0.0 4.8 0.00 0.00 0.00 76 1022.5
20260507135847 11 78 0.0 4.8 0.00 0.00 0.00 76 1022.6
20260507135344 11 216 0.0 4.8 0.00 0.00 0.00 76 1022.5
20260507134840 11 77 1.6 6.4 0.00 0.00 0.00 76 1022.5
20260507134330 11 70 1.6 6.4 0.00 0.00 0.00 76 1022.5
20260507133857 11 46 1.6 6.4 0.00 0.00 0.00 76 1022.4
20260507133352 11 71 3.2 4.8 0.00 0.00 0.00 76 1022.4
20260507132843 11 141 1.6 4.8 0.00 0.00 0.00 76 1022.4
20260507132341 11 60 0.0 3.2 0.00 0.00 0.00 77 1022.3
20260507131838 11 77 1.6 4.8 0.00 0.00 0.00 76 1022.4
20260507131341 11 93 1.6 4.8 0.00 0.00 0.00 76 1022.3
20260507130838 11 64 0.0 9.7 0.00 0.00 0.00 76 1022.4
20260507130359 11 79 1.6 9.7 0.00 0.00 0.00 76 1022.5
20260507125853 11 75 0.0 3.2 0.00 0.00 0.00 76 1022.4
20260507125351 11 124 0.0 0.0 0.00 0.00 0.00 76 1022.5
20260507124849 11 124 0.0 3.2 0.00 0.00 0.00 76 1022.4
20260507124345 11 123 1.6 6.4 0.00 0.00 0.00 76 1022.4
20260507123842 11 257 0.0 3.2 0.00 0.00 0.00 75 1022.5
20260507123335 11 38 0.0 1.6 0.00 0.00 0.00 77 1022.5
20260507122854 11 45 0.0 1.6 0.00 0.00 0.00 77 1022.4
20260507122330 11 45 0.0 6.4 0.00 0.00 0.00 76 1022.6
20260507121917 11 39 0.0 6.4 0.00 0.00 0.00 77 1022.5
20260507121353 11 41 3.2 4.8 0.00 0.00 0.00 76 1022.4
20260507120849 11 86 1.6 4.8 0.00 0.00 0.00 77 1022.5
20260507120342 11 11 1.6 4.8 0.00 0.00 0.00 77 1022.6
20260507115838 11 68 1.6 4.8 0.00 0.00 0.00 77 1022.6
20260507115358 11 61 0.0 1.6 0.00 0.00 0.00 78 1022.6
20260507114835 11 259 0.0 0.0 0.00 0.00 0.00 78 1022.7
20260507114348 11 259 0.0 0.0 0.00 0.00 0.00 78 1022.6
20260507113844 11 259 0.0 0.0 0.00 0.00 0.00 78 1022.6
20260507113341 11 265 0.0 1.6 0.00 0.00 0.00 78 1022.6
20260507112839 11 264 0.0 1.6 0.00 0.00 0.00 78 1022.7
20260507112358 11 271 0.0 1.6 0.00 0.00 0.00 78 1022.7
20260507111836 11 263 0.0 1.6 0.00 0.00 0.00 78 1022.7
20260507111330 11 271 0.0 1.6 0.00 0.00 0.00 77 1022.7
20260507110857 11 272 0.0 1.6 0.00 0.00 0.00 77 1022.8
20260507110354 11 276 0.0 3.2 0.00 0.00 0.00 77 1022.7
20260507105850 11 25 0.0 3.2 0.00 0.00 0.00 77 1022.8
20260507105342 11 250 0.0 8.0 0.00 0.00 0.00 77 1022.8
20260507104839 12 270 0.0 8.0 0.00 0.00 0.00 77 1022.8
20260507104337 12 270 1.6 8.0 0.00 0.00 0.00 77 1022.9
20260507103857 12 94 1.6 3.2 0.00 0.00 0.00 77 1022.9
20260507103352 12 271 0.0 4.8 0.00 0.00 0.00 78 1022.9
20260507102849 12 51 0.0 6.4 0.00 0.00 0.00 78 1022.9
20260507102407 12 92 0.0 6.4 0.00 0.00 0.00 78 1022.9
20260507101905 12 353 0.0 4.8 0.00 0.00 0.00 78 1022.9
20260507101342 12 43 0.0 4.8 0.00 0.00 0.00 77 1022.9
20260507100838 12 68 0.0 6.4 0.00 0.00 0.00 77 1023.0
20260507100354 12 297 0.0 6.4 0.00 0.00 0.00 77 1023.0
20260507095834 12 254 0.0 1.6 0.00 0.00 0.00 78 1023.1
20260507095330 12 271 0.0 3.2 0.00 0.00 0.00 78 1023.0
20260507094909 12 279 0.0 3.2 0.00 0.00 0.00 78 1023.1
20260507094352 12 278 0.0 3.2 0.00 0.00 0.00 77 1023.1
20260507093849 12 267 1.6 1.6 0.00 0.00 0.00 77 1023.3
20260507093348 12 42 0.0 1.6 0.00 0.00 0.00 77 1023.2
20260507092843 12 281 0.0 3.2 0.00 0.00 0.00 77 1023.3
20260507092340 12 276 0.0 3.2 0.00 0.00 0.00 77 1023.3
20260507091903 12 333 0.0 4.8 0.00 0.00 0.00 77 1023.4
20260507091339 12 265 0.0 4.8 0.00 0.00 0.00 78 1023.4
20260507090835 12 262 1.6 4.8 0.00 0.00 0.00 78 1023.5
20260507090354 12 276 0.0 3.2 0.00 0.00 0.00 78 1023.4
20260507085851 12 46 0.0 3.2 0.00 0.00 0.00 78 1023.4
20260507085348 12 262 0.0 1.6 0.00 0.00 0.00 79 1023.4
20260507084905 12 271 0.0 3.2 0.00 0.00 0.00 78 1023.3
20260507084341 12 255 1.6 3.2 0.00 0.00 0.00 79 1023.4
20260507083848 12 257 1.6 3.2 0.00 0.00 0.00 79 1023.4
20260507083402 12 238 0.0 1.6 0.00 0.00 0.00 79 1023.4
20260507082841 12 261 0.0 4.8 0.00 0.00 0.00 79 1023.5
20260507082338 12 265 0.0 4.8 0.00 0.00 0.00 79 1023.5
20260507081836 12 282 0.0 1.6 0.00 0.00 0.00 79 1023.5
20260507081333 12 289 0.0 1.6 0.00 0.00 0.00 79 1023.5
20260507080849 12 17 0.0 1.6 0.00 0.00 0.00 79 1023.5
20260507080348 12 283 0.0 0.0 0.00 0.00 0.00 79 1023.5
20260507075855 12 285 0.0 0.0 0.00 0.00 0.00 79 1023.5
20260507075352 12 286 0.0 0.0 0.00 0.00 0.00 79 1023.5
20260507074849 12 299 0.0 0.0 0.00 0.00 0.00 79 1023.5
20260507074346 12 359 0.0 1.6 0.00 0.00 0.00 79 1023.5
20260507073844 12 358 0.0 3.2 0.00 0.00 0.00 79 1023.5
20260507073338 12 269 0.0 3.2 0.00 0.00 0.00 79 1023.5
20260507072834 12 69 0.0 3.2 0.00 0.00 0.00 79 1023.5
20260507072354 12 98 0.0 4.8 0.00 0.00 0.00 79 1023.5
20260507071853 12 34 1.6 4.8 0.00 0.00 0.00 79 1023.5
20260507071330 12 262 0.0 1.6 0.00 0.00 0.00 79 1023.4
20260507070847 12 262 0.0 4.8 0.00 0.00 0.00 79 1023.4
20260507070344 12 259 1.6 4.8 0.00 0.00 0.00 79 1023.5
20260507065838 12 275 1.6 4.8 0.00 0.00 0.00 79 1023.5
20260507065334 12 268 0.0 4.8 0.00 0.00 0.00 78 1023.5
20260507064847 12 296 0.0 4.8 0.00 0.00 0.00 78 1023.5
20260507064413 12 271 0.0 4.8 0.00 0.00 0.00 78 1023.5
20260507063848 12 17 0.0 8.0 0.00 0.00 0.00 78 1023.5
20260507063345 13 278 1.6 8.0 0.00 0.00 0.00 78 1023.5
20260507062904 13 91 0.0 8.0 0.00 0.00 0.00 78 1023.6
20260507062347 13 266 1.6 8.0 0.00 0.00 0.00 78 1023.6
20260507061842 13 290 1.6 6.4 0.00 0.00 0.00 78 1023.6
20260507061340 13 290 1.6 11.3 0.00 0.00 0.00 78 1023.6
20260507060839 13 91 3.2 11.3 0.00 0.00 0.00 78 1023.6
20260507060358 13 257 0.0 6.4 0.00 0.00 0.00 78 1023.6
20260507055849 13 23 1.6 12.9 0.00 0.00 0.00 78 1023.6
20260507055345 13 253 1.6 12.9 0.00 0.00 0.00 78 1023.5
20260507054842 13 70 3.2 6.4 0.00 0.00 0.00 77 1023.5
20260507054340 13 230 0.0 4.8 0.00 0.00 0.00 77 1023.4
20260507053839 13 42 0.0 3.2 0.00 0.00 0.00 77 1023.5
20260507053336 13 266 0.0 3.2 0.00 0.00 0.00 77 1023.5
20260507052833 13 235 0.0 6.4 0.00 0.00 0.00 77 1023.4
20260507052330 13 38 0.0 4.8 0.00 0.00 0.00 77 1023.4
20260507051850 13 255 1.6 4.8 0.00 0.00 0.00 77 1023.5
20260507051349 13 92 3.2 9.7 0.00 0.00 0.00 77 1023.4
20260507050905 13 282 3.2 9.7 0.00 0.00 0.00 77 1023.4
20260507050343 13 261 1.6 12.9 0.00 0.00 0.00 77 1023.4
20260507045840 13 274 4.8 12.9 0.00 0.00 0.00 76 1023.3
20260507045358 13 271 3.2 12.9 0.00 0.00 0.00 76 1023.4
20260507044836 13 18 1.6 6.4 0.00 0.00 0.00 76 1023.5
20260507044332 14 143 1.6 11.3 0.00 0.00 0.00 76 1023.4
20260507043830 14 314 1.6 11.3 0.00 0.00 0.00 76 1023.3
20260507043345 14 248 4.8 11.3 0.00 0.00 0.00 76 1023.3
20260507042850 14 266 3.2 14.5 0.00 0.00 0.00 76 1023.1
20260507042347 14 198 1.6 14.5 0.00 0.00 0.00 76 1023.1
20260507041845 14 151 3.2 14.5 0.00 0.00 0.00 75 1023.1
20260507041333 15 248 1.6 16.1 0.00 0.00 0.00 75 1023.1
20260507040848 15 325 4.8 16.1 0.00 0.00 0.00 75 1023.0
20260507040345 15 7 1.6 6.4 0.00 0.00 0.00 76 1022.9
20260507035843 15 60 1.6 11.3 0.00 0.00 0.00 76 1022.8
20260507035341 15 281 3.2 11.3 0.00 0.00 0.00 76 1022.7
20260507034907 15 258 1.6 11.3 0.00 0.00 0.00 76 1022.6
20260507034404 15 313 1.6 8.0 0.00 0.00 0.00 76 1022.5
20260507033907 15 241 1.6 6.4 0.00 0.00 0.00 76 1022.5
20260507033341 15 31 3.2 17.7 0.00 0.00 0.00 76 1022.5
20260507032838 15 263 1.6 17.7 0.00 0.00 0.00 76 1022.4
20260507032357 15 58 3.2 9.7 0.00 0.00 0.00 76 1022.4
20260507031834 15 297 1.6 9.7 0.00 0.00 0.00 75 1022.2
20260507031330 15 266 1.6 8.0 0.00 0.00 0.00 75 1022.2
20260507030847 16 269 0.0 8.0 0.00 0.00 0.00 75 1022.2
20260507030344 16 234 1.6 8.0 0.00 0.00 0.00 74 1022.1
20260507025906 16 264 0.0 6.4 0.00 0.00 0.00 74 1022.0
20260507025337 16 292 0.0 9.7 0.00 0.00 0.00 74 1022.0
20260507024834 16 30 3.2 9.7 0.00 0.00 0.00 73 1022.0
20260507024353 17 263 1.6 6.4 0.00 0.00 0.00 72 1021.8
20260507023851 17 44 1.6 6.4 0.00 0.00 0.00 72 1021.8
20260507023348 17 74 1.6 8.0 0.00 0.00 0.00 72 1021.8
20260507022845 17 151 1.6 9.7 0.00 0.00 0.00 72 1021.8
20260507022342 17 75 0.0 16.1 0.00 0.00 0.00 72 1021.8
20260507021840 17 20 3.2 16.1 0.00 0.00 0.00 71 1021.7
20260507021339 17 231 1.6 14.5 0.00 0.00 0.00 71 1021.7
20260507020834 17 320 1.6 14.5 0.00 0.00 0.00 71 1021.9
20260507020331 17 45 3.2 11.3 0.00 0.00 0.00 70 1021.8
20260507015842 18 74 3.2 12.9 0.00 0.00 0.00 70 1021.9
20260507015338 18 47 3.2 12.9 0.00 0.00 0.00 70 1021.9
20260507014905 18 56 3.2 8.0 0.00 0.00 0.00 69 1022.0
20260507014402 18 267 1.6 9.7 0.00 0.00 0.00 70 1021.9
20260507013908 18 25 3.2 12.9 0.00 0.00 0.00 69 1021.9
20260507013343 18 282 1.6 8.0 0.00 0.00 0.00 69 1021.9
20260507012840 19 269 1.6 6.4 0.00 0.00 0.00 69 1021.8
20260507012339 19 326 1.6 6.4 0.00 0.00 0.00 68 1021.7
20260507011858 19 58 1.6 14.5 0.00 0.00 0.00 69 1021.8
20260507011351 19 22 4.8 11.3 0.00 0.00 0.00 69 1021.7
20260507010830 20 319 3.2 12.9 0.00 0.00 0.00 68 1021.8
20260507010346 20 53 1.6 8.0 0.00 0.00 0.00 69 1021.8
20260507005844 20 259 1.6 6.4 0.00 0.00 0.00 68 1021.7
20260507005410 20 17 3.2 6.4 0.00 0.00 0.00 67 1021.8
20260507004846 20 265 1.6 6.4 0.00 0.00 0.00 65 1021.6
20260507004345 21 28 0.0 4.8 0.00 0.00 0.00 64 1021.7
20260507003901 21 269 0.0 4.8 0.00 0.00 0.00 64 1021.6
20260507003339 21 359 1.6 6.4 0.00 0.00 0.00 63 1021.7
20260507002846 21 5 1.6 8.0 0.00 0.00 0.00 62 1021.7
20260507002344 21 264 0.0 8.0 0.00 0.00 0.00 62 1021.6
20260507001836 21 264 1.6 3.2 0.00 0.00 0.00 62 1021.6
20260507001416 22 303 1.6 3.2 0.00 0.00 0.00 61 1021.6
20260507000833 22 255 0.0 4.8 0.00 0.00 0.00 61 1021.6
20260507000330 22 23 1.6 4.8 0.00 0.00 0.00 61 1021.6
20260506235849 22 276 0.0 6.4 0.00 0.00 0.00 61 1021.6
20260506235346 22 257 0.0 8.0 0.00 0.00 0.00 61 1021.5
20260506234845 22 282 3.2 8.0 0.00 0.00 0.00 59 1021.5
20260506234351 22 276 3.2 6.4 0.00 0.00 0.00 60 1021.6
20260506233848 22 158 1.6 6.4 0.00 0.00 0.00 61 1021.6
20260506233344 21 168 1.6 6.4 0.00 0.00 0.00 62 1021.6
20260506232858 21 100 0.0 4.8 0.00 0.00 0.00 62 1021.6
20260506232357 21 233 1.6 4.8 0.00 0.00 0.00 61 1021.7
20260506231846 21 225 0.0 6.4 0.00 0.00 0.00 62 1021.6
20260506231353 21 245 3.2 8.0 0.00 0.00 0.00 62 1021.8
20260506230849 21 25 1.6 11.3 0.00 0.00 0.00 62 1021.9
20260506230347 21 2 1.6 6.4 0.00 0.00 0.00 63 1021.9
20260506225844 21 269 1.6 6.4 0.00 0.00 0.00 63 1021.9
20260506225342 21 221 1.6 3.2 0.00 0.00 0.00 64 1022.0
20260506224839 21 236 0.0 1.6 0.00 0.00 0.00 65 1022.0
20260506224358 20 307 0.0 3.2 0.00 0.00 0.00 65 1022.1
20260506223849 20 280 0.0 4.8 0.00 0.00 0.00 65 1022.2
20260506223346 20 243 0.0 4.8 0.00 0.00 0.00 66 1022.2
20260506222845 20 261 0.0 6.4 0.00 0.00 0.00 65 1022.3
20260506222343 20 160 1.6 6.4 0.00 0.00 0.00 67 1022.3
20260506221840 20 236 1.6 4.8 0.00 0.00 0.00 67 1022.4
20260506221338 20 282 1.6 8.0 0.00 0.00 0.00 67 1022.4
20260506220849 20 131 4.8 8.0 0.00 0.00 0.00 66 1022.4
20260506220356 20 51 1.6 8.0 0.00 0.00 0.00 66 1022.4
20260506215831 20 110 0.0 9.7 0.00 0.00 0.00 67 1022.3
20260506215348 20 238 4.8 9.7 0.00 0.00 0.00 67 1022.3
20260506214841 20 267 3.2 8.0 0.00 0.00 0.00 67 1022.3
20260506214408 20 162 4.8 8.0 0.00 0.00 0.00 67 1022.4
20260506213843 20 212 3.2 8.0 0.00 0.00 0.00 68 1022.5
20260506213334 20 91 3.2 9.7 0.00 0.00 0.00 69 1022.4
20260506212854 18 120 4.8 9.7 0.00 0.00 0.00 70 1022.5
20260506212330 19 266 1.6 6.4 0.00 0.00 0.00 69 1022.7
20260506211848 18 117 0.0 6.4 0.00 0.00 0.00 70 1022.7
20260506211413 18 288 3.2 6.4 0.00 0.00 0.00 70 1022.8
20260506210849 18 119 1.6 6.4 0.00 0.00 0.00 72 1022.8
20260506210342 18 226 1.6 6.4 0.00 0.00 0.00 69 1022.8
20260506205840 19 267 3.2 6.4 0.00 0.00 0.00 71 1022.7
20260506205334 18 145 0.0 6.4 0.00 0.00 0.00 71 1022.7
20260506204854 18 226 1.6 9.7 0.00 0.00 0.00 71 1022.7
20260506204352 18 245 1.6 9.7 0.00 0.00 0.00 74 1022.7
20260506203847 18 262 1.6 6.4 0.00 0.00 0.00 73 1022.6
20260506203344 18 216 3.2 6.4 0.00 0.00 0.00 71 1022.6
20260506202851 18 252 1.6 8.0 0.00 0.00 0.00 73 1022.6
20260506202349 18 274 3.2 8.0 0.00 0.00 0.00 72 1022.7
20260506201846 18 265 0.0 9.7 0.00 0.00 0.00 73 1022.7
20260506201344 18 263 1.6 9.7 0.00 0.00 0.00 74 1022.8
20260506200839 18 190 1.6 4.8 0.00 0.00 0.00 73 1023.0
20260506200335 18 217 1.6 8.0 0.00 0.00 0.00 74 1022.9
20260506195832 17 250 1.6 8.0 0.00 0.00 0.00 74 1022.9
20260506195355 18 262 1.6 4.8 0.00 0.00 0.00 72 1023.0
20260506194833 18 207 0.0 4.8 0.00 0.00 0.00 73 1023.0
20260506194330 17 221 1.6 4.8 0.00 0.00 0.00 73 1023.0
20260506193914 17 293 1.6 4.8 0.00 0.00 0.00 73 1023.0